Location: El Conde
(10.2895°N, 67.2409°W)
Time: 19:28:41
(UTC+00:00)

Cosmos 2100 Rocket - Pass Details

Date: 19 May 2024
Orbit: 954 x 1001 km, 82.9° (Epoch: 12 June)

Event Time Altitude Azimuth Distance (km) Brightness Sun altitude
Rises 23:03:34 0° 1° (N) 3,625 7.3 -5.3°
Reaches altitude 10° 23:06:05 10° 3° (N) 2,677 6.6 -5.8°
Maximum altitude 23:12:09 69° 86° (E) 1,017 4.0 -7.2°
Drops below altitude 10° 23:18:14 10° 169° (S) 2,678 6.0 -8.6°
Sets 23:20:45 0° 171° (S) 3,627 6.7 -9.2°
